Falls City, NE

6:13 PM CDT on March 23, 2017 (GMT -0500)
Brenner

Weather History for KFNB - May, 2014

Change the Weather History Date:

Monday, May 12, 2014

  Actual Average Record
Temperature  
Mean Temperature 62 °F -  
Max Temperature 75 °F 74 °F 95 °F (1956)
Min Temperature 48 °F 49 °F 35 °F (2013)
Degree Days  
Heating Degree Days 4    
Growing Degree Days 12 (Base 50)    
Moisture  
Dew Point 57 °F    
Average Humidity 88    
Maximum Humidity 100    
Minimum Humidity 73    
Precipitation  
Precipitation 0.39 in - - ()
Sea Level Pressure  
Sea Level Pressure 29.77 in    
Wind  
Wind Speed 14 mph (WNW)    
Max Wind Speed 24 mph    
Max Gust Speed 37 mph    
Visibility 9 miles    
Events Rain , Thunderstorm    
Averages and records for this station are not official NWS values.
T = Trace of Precipitation, MM = Missing Value Source: NWS Daily Summary

Daily Weather History Graph

Daily Weather History Graph

Search for Another Location

Airport or City:

Trip Planner

Search our weather history database for the weather conditions in past years. The results will help you decide how hot, cold, wet, or windy it might be!

Date:

Astronomy

May. 12, 2014 Rise Set
Actual Time 6:09 AM CDT 8:28 PM CDT
Civil Twilight 5:39 AM CDT 8:58 PM CDT
Nautical Twilight 5:01 AM CDT 9:36 PM CDT
Astronomical Twilight 4:20 AM CDT 10:17 PM CDT
Moon 6:27 PM CDT (5/12) 4:49 AM CDT (5/12)
Length of Visible Light 15h 19m
Length of Day
14h 18m
Waxing Gibbous, 95% of the Moon is Illuminated
May 12
Waxing Gibbous
May 14
Full
May 21
Last Quarter
May 28
New
Jun 5
First Quarter

Hourly Weather History & Observations

Time (CDT) Temp. Dew Point Humidity Pressure Visibility Wind Dir Wind Speed Gust Speed Precip Events Conditions
12:53 AM 75.0 °F 66.0 °F 73% 29.60 in 10.0 mi South 21.9 mph 32.2 mph 0.01 in Rain Light Rain
1:53 AM 73.0 °F 66.0 °F 79% 29.59 in 10.0 mi South 23.0 mph 36.8 mph 0.00 in   Clear
2:53 AM 73.9 °F 66.0 °F 76% 29.59 in 10.0 mi WSW 11.5 mph 31.1 mph 0.00 in Rain Light Rain
3:53 AM 71.1 °F 66.9 °F 87% 29.61 in 10.0 mi South 9.2 mph - 0.02 in Rain Light Rain
4:51 AM 66.2 °F 64.4 °F 94% 29.67 in 10.0 mi WNW 12.7 mph - 0.01 in Rain , Thunderstorm Light Rain
4:53 AM 66.9 °F 64.0 °F 90% 29.65 in 10.0 mi WNW 10.4 mph - 0.01 in Rain , Thunderstorm Light Rain
5:18 AM 64.9 °F 63.0 °F 93% 29.68 in 2.5 mi NW 13.8 mph - 0.10 in Rain , Thunderstorm Heavy Thunderstorms and Rain
5:33 AM 66.0 °F 64.0 °F 93% 29.68 in 3.0 mi SE 10.4 mph - 0.19 in Rain , Thunderstorm Heavy Thunderstorms and Rain
5:53 AM 64.9 °F 64.0 °F 97% 29.65 in 8.0 mi SSE 12.7 mph - 0.22 in Rain , Thunderstorm Light Thunderstorms and Rain
6:07 AM 64.9 °F 64.0 °F 97% 29.68 in 8.0 mi SSE 9.2 mph - 0.01 in Rain , Thunderstorm Rain
6:16 AM 64.9 °F 63.0 °F 93% 29.67 in 7.0 mi SSE 15.0 mph 20.7 mph 0.04 in Rain , Thunderstorm Thunderstorms and Rain
6:39 AM 64.9 °F 64.9 °F 100% 29.67 in 10.0 mi SE 10.4 mph - 0.05 in Rain , Thunderstorm Light Rain
6:53 AM 64.0 °F 64.0 °F 100% 29.66 in 9.0 mi SSE 8.1 mph - 0.06 in Rain , Thunderstorm Light Rain
7:09 AM 64.0 °F 64.0 °F 100% 29.69 in 10.0 mi South 5.8 mph - 0.00 in   Overcast
7:53 AM 64.9 °F 64.9 °F 100% 29.69 in 10.0 mi South 8.1 mph - 0.00 in   Overcast
8:20 AM 64.0 °F 64.0 °F 100% 29.73 in 10.0 mi WSW 9.2 mph - N/A   Mostly Cloudy
8:53 AM 64.4 °F 62.6 °F 94% 29.73 in 10.0 mi WNW 8.1 mph - N/A Rain Light Rain
9:00 AM 62.1 °F 61.0 °F 96% 29.74 in 8.0 mi NW 9.2 mph - 0.00 in Rain Light Rain
9:16 AM 61.0 °F 59.0 °F 93% 29.73 in 7.0 mi NNW 6.9 mph - 0.00 in   Overcast
9:53 AM 61.0 °F 59.0 °F 93% 29.72 in 10.0 mi NW 6.9 mph - 0.00 in   Overcast
10:25 AM 59.0 °F 57.0 °F 93% 29.76 in 9.0 mi WNW 12.7 mph - 0.01 in Rain , Thunderstorm Light Rain
10:34 AM 57.9 °F 55.9 °F 93% 29.76 in 4.0 mi WNW 11.5 mph - 0.06 in Rain , Thunderstorm Heavy Thunderstorms and Rain
10:53 AM 57.9 °F 55.9 °F 93% 29.73 in 10.0 mi NW 10.4 mph - 0.07 in Rain , Thunderstorm Light Thunderstorms and Rain
11:00 AM 57.9 °F 55.9 °F 93% 29.76 in 10.0 mi WNW 15.0 mph - 0.00 in   Overcast
3:53 PM 55.0 °F 50.0 °F 83% 29.86 in 10.0 mi NW 17.3 mph 26.5 mph N/A   Overcast
4:22 PM 54.0 °F 48.0 °F 80% 29.89 in 10.0 mi NW 18.4 mph 25.3 mph N/A   Overcast
4:29 PM 54.0 °F 48.9 °F 83% 29.89 in 10.0 mi NW 17.3 mph 25.3 mph N/A   Overcast
4:43 PM 53.1 °F 48.0 °F 83% 29.90 in 10.0 mi NW 13.8 mph 27.6 mph N/A   Overcast
4:53 PM 54.0 °F 48.0 °F 80% 29.89 in 10.0 mi NW 16.1 mph 24.2 mph N/A   Overcast
5:53 PM 52.0 °F 46.0 °F 80% 29.92 in 10.0 mi NNW 18.4 mph 25.3 mph N/A   Overcast
6:53 PM 52.0 °F 45.0 °F 77% 29.93 in 10.0 mi NW 24.2 mph 29.9 mph N/A   Overcast
7:53 PM 50.0 °F 44.1 °F 80% 29.94 in 10.0 mi NW 19.6 mph 28.8 mph N/A   Overcast
8:53 PM 50.0 °F 43.0 °F 77% 29.98 in 10.0 mi NW 21.9 mph 29.9 mph N/A   Overcast
9:53 PM 48.2 °F 42.8 °F 82% 30.02 in 10.0 mi NW 16.1 mph 25.3 mph N/A   Overcast
10:53 PM 48.9 °F 43.0 °F 80% 30.03 in 10.0 mi NW 12.7 mph 21.9 mph N/A   Overcast
11:53 PM 48.0 °F 42.1 °F 80% 30.05 in 10.0 mi NNW 12.7 mph - N/A   Overcast